Notices

What's New in latest Release from April 7th, 2021:

- Updated Glossary, including Speed of Maximum Gust, and Total Hourly Precipitation

- Updated national and regional climate services offices contacts and prices information

- Addition of station inventory lists for 1981-2010, 1971-2000, and 1961-1990 Normals.

If you haven't already, please take our survey and provide feedback about our website: https://eccc.sondage-survey.ca/f/LanguageSelection.aspx?s=442ca660-fcf1-47c0-95a9-59707d6fd709

Hourly Data Report for October 09, 2018

PILGER
SASKATCHEWAN
Current Station Operator: ECCC - MSC

52°25'00.000" N
105°09'00.000" W
552.00 m
4056121
71655
PUN

Download Data

Hourly Data (October 2018)
Hourly Data Report for October 9, 2018
TIME
LST
Temp Definition
°C
Dew Point Definition
°C
Rel Hum Definition
%
Precip. Amount Definition
mm

Wind Dir Definition
10's deg

Wind Spd Definition
km/h
Visibility Definition
km
Stn Press Definition
kPa
Hmdx Definition


Wind Chill Definition


Weather Definition


00:00 -4.4 -5.9 90 0.0 5 16   96.07   -10 LegendNANA
01:00 -4.8 -6.1 91 0.0 4 14   96.10   -10 LegendNANA
02:00 -5.6 -6.8 91 0.0 5 12   96.17   -11 LegendNANA
03:00 -5.6 -6.6 93 0.2 3 11   96.19   -10 LegendNANA
04:00 -6.7 -7.5 94 0.0 1 11   96.20   -12 LegendNANA
05:00 -6.7 -7.4 94 0.0 2 9   96.23   -11 LegendNANA
06:00 -6.4 -7.2 94 0.0 4 7   96.25   -10 LegendNANA
07:00 -10.3 -11.4 91 0.0 2 9   96.29   -15 LegendNANA
08:00 -8.6 -9.6 92 0.0 1 8   96.32   -13 LegendNANA
09:00 -5.1 -6.0 93 0.0 3 7   96.32   -8 LegendNANA
10:00 -3.4 -6.9 77 0.0 6 16   96.34   -9 LegendNANA
11:00 -2.6 -6.9 72 0.0 4 14   96.35   -7 LegendNANA
12:00 -0.6 -6.3 65 0.0 5 15   96.36   -5 LegendNANA
13:00 0.4 -8.1 53 0.0 6 11   96.37     LegendNANA
14:00 1.4 -10.4 41 0.0 6 10   96.34     LegendNANA
15:00 2.2 -11.9 35 0.0 5 12   96.32     LegendNANA
16:00 1.9 -13.8 30 0.0 3 12   96.33     LegendNANA
17:00 1.4 -15.0 28 0.0 3 12   96.34     LegendNANA
18:00 -1.3 -12.6 42 0.0 4 11   96.38   -5 LegendNANA
19:00 -3.3 -10.8 56 0.0 1 11   96.38   -8 LegendNANA
20:00 -2.6 -10.2 56 0.0 1 8   96.38   -6 LegendNANA
21:00 -4.8 -10.7 63 0.0 1 6   96.37   -8 LegendNANA
22:00 -4.1 -9.8 64 0.0 35 8   96.34   -8 LegendNANA
23:00 -5.2 -9.9 70 0.0 35 5   96.33   -7 LegendNANA

Notes on Data Quality.

Legend

  • E = Estimated
  • M = Missing
  • NA = Not Available*
  • [empty] = Indicates an unobserved value
Date modified: